Total_Precipitation_Accumulation
0.81 1.02 0.90 0.61 0.62 0.55 0.45 0.45 0.35 0.20 0.18 0.33 0.32 0.23 0.20 0.20 0.23 0.25 0.25 0.32 0.32 0.34 0.39 0.45 0.58 0.71 0.82 0.90 1.06 1.26 1.43 1.61 1.85 2.00 2.06 2.04 1.98 1.82 1.73 1.68 1.59 1.53 1.54 1.62
0.89 0.79 0.40 0.30 0.39 0.48 0.51 0.56 0.43 0.29 0.21 0.35 0.34 0.25 0.21 0.21 0.23 0.26 0.27 0.34 0.34 0.34 0.40 0.44 0.54 0.70 0.78 0.85 0.94 1.15 1.34 1.50 1.71 1.88 1.90 1.99 1.96 1.89 1.79 1.70 1.67 1.60 1.55 1.62
0.70 0.45 0.28 0.36 0.49 0.62 0.57 0.51 0.43 0.40 0.35 0.39 0.45 0.39 0.22 0.20 0.20 0.23 0.25 0.30 0.32 0.34 0.36 0.39 0.49 0.64 0.76 0.81 0.90 1.06 1.26 1.42 1.56 1.81 2.08 2.26 2.34 2.18 2.03 1.86 1.71 1.60 1.57 1.57
0.52 0.30 0.33 0.45 0.52 0.61 0.62 0.35 0.38 0.46 0.69 0.73 0.59 0.69 0.28 0.20 0.18 0.21 0.25 0.27 0.27 0.31 0.31 0.33 0.43 0.57 0.69 0.79 0.94 1.08 1.16 1.36 1.56 1.71 1.99 2.24 2.34 2.20 1.88 1.78 1.75 1.69 1.61 1.60
0.66 0.34 0.39 0.47 0.39 0.47 0.51 0.37 0.41 0.52 0.80 0.95 0.64 0.74 0.34 0.20 0.20 0.20 0.25 0.26 0.26 0.29 0.32 0.31 0.37 0.48 0.60 0.79 0.94 1.09 1.18 1.33 1.58 1.76 1.88 2.16 2.32 2.21 2.04 1.91 1.80 1.73 1.70 1.66
0.51 0.36 0.44 0.38 0.29 0.38 0.48 0.58 0.69 0.81 1.30 1.59 0.60 0.58 0.39 0.27 0.29 0.24 0.25 0.29 0.29 0.32 0.36 0.33 0.37 0.47 0.55 0.75 0.87 1.07 1.21 1.27 1.50 1.73 1.89 2.04 2.26 2.36 2.26 2.11 1.99 1.84 1.78 1.72
0.67 0.48 0.46 0.41 0.51 0.57 0.80 1.36 2.02 2.21 2.26 1.36 0.32 0.40 0.43 0.29 0.27 0.31 0.34 0.35 0.35 0.35 0.36 0.36 0.40 0.47 0.51 0.69 0.82 1.00 1.22 1.24 1.33 1.52 1.74 1.93 2.12 2.30 2.40 2.25 2.05 1.93 1.90 1.83
0.83 0.66 0.51 0.51 0.63 0.77 0.84 1.21 1.63 1.52 1.01 0.49 0.28 0.38 0.37 0.30 0.27 0.27 0.28 0.32 0.32 0.33 0.35 0.37 0.40 0.46 0.50 0.57 0.70 0.87 1.11 1.19 1.21 1.33 1.49 1.79 2.05 2.23 2.32 2.35 2.15 1.99 1.88 1.78
0.95 0.62 0.37 0.36 0.39 0.52 0.83 0.90 0.81 1.10 0.80 0.53 0.42 0.36 0.29 0.20 0.19 0.20 0.23 0.28 0.31 0.36 0.38 0.39 0.46 0.49 0.52 0.56 0.63 0.78 1.02 1.15 1.13 1.22 1.33 1.52 1.80 2.08 2.22 2.25 2.24 2.10 1.96 1.84
1.11 0.83 0.43 0.39 0.48 0.57 0.67 0.82 0.94 1.42 1.29 0.78 0.45 0.33 0.41 0.32 0.25 0.22 0.25 0.31 0.34 0.36 0.41 0.42 0.47 0.52 0.54 0.56 0.62 0.75 0.92 1.14 1.16 1.17 1.25 1.36 1.52 1.77 2.01 2.19 2.29 2.14 2.04 1.96
1.01 1.10 0.73 0.65 0.84 0.86 0.76 1.00 1.20 1.22 0.99 0.84 0.62 0.49 0.53 0.44 0.37 0.32 0.29 0.32 0.36 0.38 0.43 0.46 0.46 0.51 0.55 0.56 0.61 0.75 0.87 1.04 1.21 1.25 1.24 1.34 1.46 1.66 1.83 1.90 2.05 2.15 2.12 2.02
0.98 1.25 0.96 0.67 0.60 0.60 0.77 0.90 1.04 1.25 0.96 0.59 0.61 0.57 0.44 0.38 0.35 0.33 0.31 0.31 0.37 0.42 0.47 0.49 0.48 0.46 0.50 0.57 0.62 0.69 0.86 0.99 1.12 1.26 1.29 1.34 1.45 1.65 1.78 1.76 1.77 1.89 2.07 2.06
1.44 1.67 1.35 1.03 0.90 0.79 0.97 0.88 0.86 0.94 0.89 0.68 0.60 0.47 0.33 0.28 0.28 0.29 0.30 0.30 0.35 0.41 0.46 0.49 0.47 0.45 0.51 0.57 0.63 0.65 0.75 0.93 1.08 1.21 1.30 1.29 1.42 1.55 1.63 1.66 1.66 1.65 1.80 1.96
1.60 1.65 1.25 1.16 1.06 0.97 0.94 0.77 0.71 0.96 1.14 0.69 0.44 0.36 0.30 0.29 0.28 0.29 0.30 0.31 0.34 0.38 0.43 0.46 0.48 0.49 0.54 0.58 0.58 0.62 0.72 0.86 1.07 1.24 1.37 1.33 1.40 1.51 1.54 1.54 1.58 1.54 1.59 1.75
1.30 1.31 0.67 0.44 0.39 0.49 0.57 0.54 0.56 0.75 0.73 0.64 0.42 0.34 0.37 0.39 0.40 0.39 0.39 0.35 0.32 0.37 0.41 0.45 0.52 0.57 0.58 0.59 0.59 0.61 0.72 0.80 1.01 1.24 1.42 1.43 1.41 1.47 1.51 1.49 1.54 1.55 1.57 1.63
1.09 1.10 0.57 0.35 0.25 0.33 0.41 0.37 0.41 0.46 0.47 0.44 0.35 0.39 0.36 0.37 0.33 0.35 0.38 0.37 0.37 0.40 0.43 0.43 0.49 0.54 0.57 0.59 0.59 0.62 0.70 0.76 0.90 1.10 1.30 1.40 1.40 1.45 1.48 1.44 1.50 1.55 1.57 1.59
1.04 1.04 0.89 0.52 0.25 0.48 0.67 0.49 0.47 0.48 0.48 0.48 0.48 0.45 0.37 0.35 0.36 0.40 0.41 0.42 0.44 0.46 0.45 0.45 0.50 0.54 0.56 0.57 0.57 0.63 0.70 0.72 0.80 0.96 1.15 1.27 1.32 1.35 1.37 1.37 1.44 1.52 1.55 1.52
0.89 1.00 1.22 0.82 0.60 1.00 0.74 0.41 0.42 0.48 0.53 0.52 0.50 0.44 0.41 0.41 0.43 0.42 0.41 0.44 0.47 0.47 0.45 0.47 0.53 0.55 0.54 0.55 0.58 0.60 0.64 0.68 0.73 0.84 1.00 1.20 1.26 1.27 1.26 1.28 1.32 1.39 1.45 1.46
0.56 0.98 1.46 1.19 0.89 0.64 0.41 0.29 0.42 0.52 0.57 0.51 0.43 0.36 0.34 0.34 0.34 0.37 0.36 0.37 0.43 0.45 0.43 0.46 0.53 0.56 0.54 0.54 0.57 0.59 0.62 0.66 0.72 0.85 0.96 1.11 1.21 1.22 1.19 1.22 1.24 1.24 1.26 1.31
0.65 1.06 1.64 1.41 1.07 0.66 0.44 0.23 0.27 0.46 0.64 0.42 0.35 0.33 0.34 0.35 0.43 0.42 0.36 0.32 0.34 0.35 0.37 0.42 0.47 0.51 0.50 0.52 0.54 0.57 0.63 0.66 0.71 0.85 0.96 1.03 1.10 1.14 1.11 1.14 1.18 1.16 1.13 1.15
0.97 1.48 1.63 1.19 0.98 0.49 0.29 0.18 0.24 0.59 0.70 0.36 0.31 0.32 0.33 0.43 0.49 0.41 0.33 0.32 0.33 0.36 0.38 0.41 0.44 0.46 0.49 0.51 0.53 0.57 0.63 0.70 0.73 0.80 0.86 0.93 0.99 1.02 0.99 1.03 1.05 1.07 1.07 1.06
0.74 1.03 1.05 0.98 1.08 0.60 0.26 0.26 0.53 0.64 0.34 0.26 0.25 0.26 0.28 0.31 0.30 0.29 0.31 0.32 0.35 0.38 0.39 0.40 0.43 0.43 0.45 0.48 0.49 0.53 0.62 0.69 0.70 0.71 0.74 0.83 0.91 0.92 0.89 0.96 0.96 0.95 1.00 1.04
0.59 0.82 0.86 0.81 0.72 0.48 0.36 0.42 0.45 0.37 0.31 0.24 0.23 0.22 0.25 0.27 0.29 0.30 0.32 0.33 0.36 0.38 0.38 0.39 0.40 0.39 0.41 0.46 0.47 0.52 0.58 0.62 0.70 0.70 0.71 0.76 0.84 0.89 0.89 0.92 0.93 0.93 0.93 0.95
0.43 0.46 0.60 0.54 0.41 0.35 0.33 0.31 0.27 0.23 0.25 0.23 0.23 0.24 0.26 0.27 0.28 0.31 0.32 0.35 0.38 0.40 0.40 0.40 0.38 0.39 0.43 0.48 0.49 0.52 0.56 0.60 0.68 0.69 0.69 0.72 0.78 0.88 0.87 0.89 0.90 0.92 0.94 1.01
0.36 0.39 0.48 0.45 0.33 0.27 0.23 0.23 0.24 0.21 0.20 0.19 0.20 0.21 0.25 0.26 0.28 0.30 0.33 0.37 0.40 0.41 0.41 0.40 0.37 0.39 0.43 0.46 0.49 0.50 0.53 0.58 0.65 0.67 0.66 0.67 0.71 0.83 0.87 0.90 0.93 0.94 0.92 1.11
0.27 0.36 0.44 0.41 0.31 0.35 0.28 0.23 0.23 0.24 0.22 0.22 0.22 0.23 0.22 0.24 0.27 0.30 0.36 0.38 0.39 0.39 0.38 0.36 0.35 0.36 0.42 0.45 0.49 0.49 0.51 0.54 0.60 0.66 0.68 0.66 0.69 0.81 0.85 0.89 0.95 1.00 0.98 1.02